Wind_Speed
35 34 31 28 25 25 24 23 23 22 22 21 21 20 21 21 21 22 21 23 23 23 22 22 22 23 23 24 24 25 24 24 25 25 26 27 29 30 32 33 34 37 41
39 36 35 32 30 28 28 27 26 26 25 25 24 24 24 24 25 25 26 26 26 26 26 27 26 27 27 27 27 27 26 27 27 27 29 29 31 31 32 33 36 39 41
41 40 37 35 33 32 31 30 29 29 28 28 27 26 26 27 28 28 29 30 30 31 31 33 34 32 31 31 30 30 29 28 29 29 30 32 33 33 35 39 43 46 44
41 42 41 37 36 34 34 33 32 32 31 31 31 30 29 30 31 31 32 33 34 35 35 37 37 38 37 35 34 32 31 30 29 31 32 33 36 36 39 42 47 45 44
42 42 42 40 37 36 36 36 35 35 33 32 32 32 32 33 35 36 36 36 37 38 38 40 40 40 38 38 37 35 32 32 32 33 34 35 37 41 44 47 43 41 40
43 43 41 40 41 39 38 37 36 35 35 34 34 33 35 36 38 39 40 40 41 42 41 42 41 41 41 41 38 37 35 34 34 33 36 38 41 44 45 40 36 37 41
45 44 42 42 41 41 40 42 41 40 39 38 37 38 39 39 40 42 43 43 44 45 46 44 42 42 42 39 41 38 35 35 34 36 37 40 43 42 36 34 37 40 42
48 46 42 43 43 43 42 44 44 45 44 44 43 42 41 42 43 44 44 46 47 48 45 45 45 44 43 42 39 35 35 35 35 36 39 41 41 35 33 36 40 42 44
49 46 47 47 46 41 41 44 46 48 47 46 44 42 43 44 45 46 46 47 46 45 44 45 43 42 40 39 37 35 36 36 36 38 39 38 34 32 34 38 41 42 45
51 50 49 50 49 47 44 42 45 47 46 44 44 43 45 46 46 46 46 43 43 43 45 42 40 39 37 34 34 36 37 38 37 37 37 33 32 33 35 39 42 45 45
54 51 52 52 52 48 44 43 45 46 46 45 43 42 43 43 43 41 40 41 43 43 42 41 38 37 35 34 37 40 41 39 36 34 33 33 34 36 38 41 44 47 49
52 53 54 53 51 47 44 46 46 45 47 46 44 41 41 40 40 41 43 41 41 41 41 39 36 37 38 38 41 39 37 35 31 31 33 34 37 39 43 45 47 49 51
51 49 52 49 48 44 42 46 48 47 49 47 45 41 41 42 42 39 39 38 39 40 43 42 41 40 39 37 35 33 33 34 34 34 38 41 42 44 46 49 52 53 55
52 51 52 48 47 45 41 44 43 43 45 43 43 42 42 38 38 38 38 38 41 41 39 38 38 37 33 31 33 34 33 34 38 39 43 45 47 48 51 54 55 55 54
50 50 47 44 41 42 40 41 42 43 44 42 39 39 41 41 41 38 37 35 34 35 36 34 33 33 32 33 36 37 39 41 44 46 47 49 50 52 54 56 55 54 52
44 45 44 44 43 42 42 42 42 43 42 41 41 40 38 38 35 33 35 36 36 34 35 34 35 35 36 37 39 41 43 46 48 50 52 52 54 56 56 57 53 52 53
48 46 45 42 39 39 39 40 41 41 42 41 36 35 35 35 37 39 41 41 40 40 38 38 39 40 41 43 47 50 52 55 56 56 56 59 60 60 59 56 54 54 54
52 47 45 43 41 42 43 42 41 41 39 36 36 37 38 41 43 45 44 46 44 41 42 43 43 44 45 49 52 56 61 64 61 60 60 61 61 62 60 56 55 57 56
60 56 52 50 49 48 45 43 43 42 43 42 40 42 44 41 41 38 42 45 43 41 43 41 46 44 45 53 56 64 66 64 62 63 62 63 64 61 58 58 58 58 58
55 55 54 49 47 43 42 42 44 45 48 47 45 41 43 40 46 46 45 47 47 47 49 45 50 50 55 62 71 67 64 66 66 65 64 64 61 61 59 60 60 60 61
59 56 54 49 47 45 46 45 44 48 43 40 45 50 51 49 50 52 51 51 50 53 54 47 54 57 63 72 68 67 67 68 64 62 62 59 59 60 62 63 62 62 62
62 61 55 50 49 48 44 42 42 47 49 45 51 58 56 55 55 55 54 54 52 52 46 56 60 68 67 68 66 68 71 66 65 63 63 62 62 64 65 66 65 64 64
57 57 53 49 43 44 40 44 45 55 61 55 53 58 64 61 61 61 63 64 62 57 60 66 67 69 68 70 71 69 72 68 65 68 69 68 67 66 67 68 68 67 67
64 63 51 45 43 44 51 42 45 58 62 56 64 68 70 68 67 66 68 69 67 67 72 74 77 70 76 75 74 75 76 77 72 72 74 71 72 72 73 72 71 69 70
70 63 53 48 48 50 52 57 62 64 58 69 68 72 72 75 77 72 73 73 75 78 78 80 76 76 80 79 80 83 84 83 78 76 74 80 78 75 75 74 72 70 72
77 77 66 63 58 61 57 58 63 76 70 77 70 66 71 70 71 75 76 78 80 83 86 83 79 86 84 83 86 91 87 84 83 81 81 79 78 81 77 77 74 74 72
Wind_Direction
238 240 241 242 245 247 249 256 261 263 264 265 267 270 273 282 287 289 294 298 302 303 304 308 311 312 312 310 310 306 305 301 297 295 294 294 290 288 285 285 288 286 284
238 240 240 242 244 246 250 254 260 263 266 264 265 271 276 281 285 289 295 300 304 306 304 307 312 312 313 314 312 307 305 305 303 301 299 299 301 297 290 291 295 296 289
237 239 240 243 243 247 249 254 257 262 265 266 267 271 275 279 283 290 294 298 301 304 307 309 313 316 314 314 317 314 310 309 308 307 306 303 302 301 298 295 298 301 296
238 239 240 242 244 247 249 252 255 258 263 267 271 273 276 277 281 285 290 294 299 303 307 311 313 314 316 316 314 318 314 312 309 307 308 307 304 304 305 304 305 301 296
237 240 241 243 243 246 248 249 253 257 261 267 271 274 277 279 281 285 289 292 298 302 307 310 312 312 312 313 313 314 312 309 310 309 310 310 312 310 308 308 303 300 300
236 241 243 245 245 246 247 250 253 257 260 264 270 273 277 281 283 286 288 291 297 300 305 308 308 309 310 311 311 310 310 306 309 308 309 310 310 309 310 307 306 304 301
236 235 239 242 246 246 247 251 256 257 259 263 265 271 276 280 283 286 289 292 296 299 302 304 305 307 309 312 312 311 307 306 307 308 309 308 309 310 308 306 303 304 307
235 234 236 239 241 246 249 254 255 257 259 263 266 270 273 277 281 284 287 291 294 298 301 302 303 304 306 309 313 310 309 309 309 311 310 310 310 310 311 308 308 312 313
233 234 235 238 239 240 248 256 258 260 261 263 266 268 271 276 281 284 287 291 294 297 299 301 303 306 307 307 308 307 307 308 310 312 311 311 310 313 311 311 314 318 317
233 234 234 238 239 238 248 252 257 261 263 267 269 268 272 276 280 284 287 290 292 294 297 300 305 307 309 308 304 303 305 308 311 310 309 311 312 313 314 317 320 322 321
235 234 235 237 241 244 244 252 256 260 265 269 271 273 275 279 282 284 288 290 291 293 296 300 304 306 306 305 303 304 307 308 312 309 312 314 319 320 321 321 321 321 322
234 235 238 240 243 242 243 250 254 259 265 270 273 273 278 283 283 287 290 290 289 293 295 299 302 303 303 304 303 304 307 309 309 312 316 317 318 319 320 319 319 319 323
231 233 238 243 244 247 248 254 255 257 262 267 271 274 277 280 285 290 291 292 292 294 295 295 296 298 302 304 304 306 309 311 311 316 318 319 319 320 319 319 320 321 322
228 232 239 244 245 246 249 257 259 263 266 267 269 273 275 279 284 287 288 291 293 296 297 296 296 298 303 305 307 310 311 313 315 317 316 316 317 319 319 320 321 324 323
232 235 240 244 247 251 252 258 260 262 265 267 271 275 278 279 282 285 286 288 293 297 298 299 300 302 303 308 312 313 314 315 316 315 314 314 315 316 318 321 323 326 325
235 236 240 243 245 249 254 257 262 264 266 268 273 274 276 277 279 281 284 287 291 295 297 300 303 306 307 307 310 312 316 317 317 315 313 313 315 317 320 322 324 323 326
233 236 238 243 244 247 253 257 261 265 266 269 269 270 273 277 282 283 285 287 292 295 294 296 301 303 306 305 309 311 313 315 313 312 313 315 316 317 320 322 322 323 328
224 228 234 239 244 252 256 259 262 269 271 269 271 275 281 283 285 286 286 290 293 294 292 295 298 301 306 310 311 312 311 313 313 312 312 313 314 316 321 321 322 323 326
235 236 239 242 250 253 257 260 264 267 271 271 276 282 284 296 286 288 282 285 288 290 296 294 304 301 306 313 313 312 313 312 311 312 311 313 314 316 318 319 321 323 325
236 239 242 245 248 253 257 263 269 273 273 276 279 274 273 278 278 281 281 284 287 288 295 294 301 301 303 308 311 310 313 312 313 313 312 312 313 314 315 318 318 321 322
234 240 243 247 251 257 263 271 272 273 263 269 266 272 276 276 280 280 279 280 286 294 295 296 300 304 304 306 309 311 313 313 312 310 310 310 311 311 313 314 316 318 319
237 241 245 248 251 255 262 264 270 274 271 265 267 272 277 281 282 283 281 281 288 289 292 297 302 306 304 307 309 308 315 312 310 309 308 308 308 308 311 312 312 313 317
234 239 243 250 249 255 261 264 274 274 269 270 275 277 283 283 282 284 281 280 288 284 294 299 302 303 305 306 306 306 310 309 307 306 306 307 306 307 308 308 310 312 313
233 239 237 236 242 245 262 253 267 259 258 262 279 279 280 280 281 284 284 288 290 292 292 297 297 299 303 305 303 304 305 306 302 302 302 303 304 305 306 306 308 309 309
231 232 231 235 248 239 257 252 254 253 251 259 270 274 272 277 279 278 281 284 286 289 291 294 296 298 302 303 302 301 302 302 299 300 301 303 304 303 303 304 306 306 308
236 233 230 236 231 230 237 241 241 246 252 257 262 267 270 275 273 276 279 283 284 286 290 292 293 299 300 299 299 299 298 297 298 298 300 298 300 302 303 303 303 303 305
Height
10856 10860 10862 10863 10865 10868 10869 10870 10872 10873 10873 10874 10874 10874 10875 10875 10875 10874 10874 10874 10873 10873 10872 10871 10870 10869 10867 10866 10864 10862 10862 10861 10860 10858 10857 10855 10853 10851 10849 10847 10844 10841 10838
10851 10855 10857 10860 10862 10864 10866 10867 10868 10869 10870 10871 10871 10872 10872 10872 10872 10872 10872 10871 10871 10870 10869 10868 10867 10865 10863 10862 10860 10859 10857 10856 10854 10852 10850 10849 10847 10845 10843 10840 10837 10833 10831
10846 10849 10852 10855 10857 10859 10861 10863 10864 10866 10867 10867 10868 10869 10869 10869 10869 10869 10868 10868 10867 10866 10865 10863 10862 10861 10859 10858 10856 10854 10852 10851 10849 10847 10845 10843 10841 10839 10836 10832 10829 10825 10822
10840 10843 10847 10850 10852 10854 10856 10858 10860 10861 10862 10863 10864 10865 10866 10866 10865 10865 10865 10864 10863 10862 10861 10859 10857 10856 10854 10853 10851 10849 10847 10845 10843 10842 10840 10838 10834 10832 10828 10825 10821 10817 10813
10834 10837 10841 10844 10847 10849 10851 10853 10854 10856 10859 10860 10861 10862 10862 10862 10862 10862 10861 10860 10859 10858 10857 10855 10853 10850 10849 10847 10846 10844 10842 10840 10838 10836 10834 10831 10828 10825 10821 10817 10813 10809 10806
10828 10832 10836 10839 10842 10844 10846 10847 10849 10852 10854 10855 10857 10857 10858 10858 10858 10857 10856 10856 10855 10853 10852 10850 10848 10846 10844 10843 10841 10839 10837 10835 10832 10830 10828 10825 10821 10817 10814 10810 10806 10802 10799
10822 10826 10830 10833 10836 10839 10840 10842 10844 10846 10848 10850 10852 10853 10854 10854 10853 10852 10851 10851 10849 10848 10847 10844 10842 10841 10839 10837 10835 10833 10831 10829 10827 10825 10822 10818 10814 10810 10806 10802 10798 10795 10790
10815 10820 10824 10827 10831 10834 10835 10836 10838 10840 10842 10845 10846 10848 10849 10849 10848 10847 10846 10845 10844 10842 10841 10839 10837 10835 10834 10832 10829 10827 10825 10823 10821 10819 10816 10812 10807 10803 10800 10796 10792 10787 10782
10808 10814 10818 10820 10824 10827 10830 10831 10832 10833 10836 10838 10841 10843 10843 10843 10842 10842 10841 10839 10838 10836 10834 10833 10831 10829 10828 10826 10823 10821 10819 10818 10816 10813 10809 10805 10801 10797 10794 10790 10784 10780 10774
10801 10806 10811 10814 10817 10822 10825 10825 10826 10828 10830 10833 10836 10837 10837 10837 10836 10835 10835 10833 10832 10830 10828 10827 10825 10823 10822 10819 10817 10816 10813 10811 10809 10805 10802 10799 10795 10792 10788 10783 10777 10771 10766
10794 10798 10802 10807 10812 10816 10819 10819 10821 10822 10824 10828 10829 10831 10830 10830 10829 10829 10828 10827 10825 10824 10822 10820 10819 10817 10816 10813 10811 10809 10806 10804 10802 10798 10795 10792 10789 10785 10781 10775 10769 10763 10758
10787 10793 10797 10801 10806 10810 10812 10812 10815 10818 10820 10821 10823 10824 10823 10822 10821 10821 10821 10820 10819 10818 10816 10814 10813 10811 10809 10808 10805 10802 10800 10797 10795 10791 10788 10785 10781 10777 10772 10767 10761 10755 10748
10781 10788 10790 10795 10800 10803 10806 10806 10809 10813 10814 10816 10817 10817 10816 10815 10815 10814 10814 10813 10812 10811 10809 10807 10806 10804 10803 10801 10798 10795 10793 10791 10787 10785 10781 10777 10774 10769 10764 10759 10752 10746 10739
10773 10780 10783 10789 10793 10797 10800 10800 10803 10805 10806 10808 10810 10810 10809 10809 10808 10807 10807 10806 10805 10804 10802 10800 10799 10797 10796 10794 10792 10789 10787 10784 10780 10779 10774 10770 10765 10761 10755 10750 10743 10737 10729
10770 10775 10779 10783 10787 10790 10793 10794 10795 10797 10798 10801 10803 10803 10802 10802 10801 10801 10800 10799 10798 10797 10795 10794 10793 10791 10789 10787 10785 10783 10780 10777 10774 10769 10766 10761 10757 10753 10747 10741 10734 10728 10720
10763 10768 10772 10776 10780 10784 10786 10787 10788 10789 10791 10794 10794 10794 10794 10795 10795 10794 10792 10791 10791 10790 10789 10787 10786 10784 10783 10781 10778 10776 10773 10771 10767 10762 10756 10753 10747 10742 10737 10731 10726 10720 10713
10756 10761 10765 10768 10773 10776 10778 10780 10781 10782 10783 10785 10786 10787 10787 10788 10788 10787 10785 10784 10783 10782 10782 10780 10778 10777 10775 10773 10771 10768 10765 10761 10757 10753 10749 10742 10736 10732 10728 10721 10716 10709 10704
10749 10753 10758 10762 10766 10769 10771 10773 10774 10775 10776 10777 10779 10780 10780 10780 10780 10779 10777 10776 10775 10774 10773 10772 10770 10768 10766 10764 10762 10759 10755 10751 10747 10743 10738 10733 10728 10720 10716 10711 10705 10700 10694
10740 10746 10751 10755 10758 10760 10763 10765 10767 10768 10768 10769 10770 10771 10771 10770 10770 10768 10767 10767 10767 10766 10765 10764 10762 10760 10757 10755 10752 10749 10744 10740 10736 10732 10727 10721 10716 10711 10706 10700 10696 10690 10684
10735 10739 10742 10747 10750 10752 10755 10756 10757 10758 10758 10759 10760 10760 10759 10759 10759 10758 10758 10758 10757 10756 10755 10754 10753 10751 10748 10744 10741 10737 10733 10728 10724 10719 10715 10709 10704 10700 10695 10691 10685 10679 10674
10725 10731 10734 10739 10742 10745 10746 10747 10748 10749 10747 10747 10749 10748 10748 10748 10747 10748 10748 10747 10748 10747 10745 10744 10742 10740 10737 10735 10729 10726 10721 10716 10713 10709 10704 10700 10695 10690 10685 10680 10675 10670 10664
10717 10721 10726 10732 10734 10736 10738 10739 10738 10738 10737 10735 10736 10736 10736 10736 10736 10737 10737 10737 10738 10737 10735 10733 10729 10728 10725 10721 10718 10713 10710 10705 10698 10696 10691 10690 10684 10679 10673 10668 10664 10660 10654
10707 10712 10718 10722 10724 10726 10729 10731 10731 10728 10726 10723 10724 10723 10724 10725 10725 10725 10726 10725 10726 10725 10723 10721 10718 10716 10713 10710 10706 10702 10699 10694 10688 10682 10678 10674 10670 10667 10663 10656 10651 10646 10641
10698 10704 10709 10713 10715 10719 10719 10721 10720 10716 10715 10714 10712 10712 10713 10712 10713 10714 10713 10713 10713 10711 10711 10708 10707 10703 10699 10695 10693 10689 10685 10682 10679 10670 10665 10662 10655 10651 10647 10643 10638 10632 10627
10687 10692 10698 10704 10707 10709 10707 10708 10708 10705 10702 10705 10704 10703 10702 10702 10701 10702 10703 10702 10700 10697 10696 10694 10692 10688 10684 10679 10676 10672 10669 10665 10664 10662 10656 10640 10638 10637 10632 10626 10622 10617 10612
10673 10680 10686 10688 10692 10692 10693 10692 10690 10689 10689 10691 10692 10693 10691 10691 10691 10689 10689 10689 10687 10684 10681 10679 10676 10671 10667 10664 10660 10657 10652 10648 10643 10642 10641 10635 10628 10614 10612 10606 10604 10600 10597